AirNav   Everest Fuels
 
 1515 users online  

WI97 Mathaire Field Airport
Marshall, Wisconsin, USA

GOING TO MARSHALL?


FAA INFORMATION EFFECTIVE 06 OCTOBER 2022

Location

FAA Identifier: WI97
Lat/Long: 43-15-27.9720N 089-03-53.3960W
43-15.466200N 089-03.889933W
43.2577700,-89.0648322
(estimated)
Elevation: 960 ft. / 292.6 m (surveyed)
Variation: 00W (1985)
From city: 5 miles N of MARSHALL, WI
Time zone: UTC -5 (UTC -6 during Standard Time)
Zip code: 53925

Airport Operations

Airport use: Private use. Permission required prior to landing
Activation date: 11/1968
Control tower: no
ARTCC: CHICAGO CENTER
FSS: GREEN BAY FLIGHT SERVICE STATION
Attendance: UNATNDD
Wind indicator: yes
Segmented circle: no

Airport Communications

WX ASOS at MSN (14 nm SW): PHONE 608-249-0615
WX AWOS-3 at RYV (16 nm E): 119.975 (920-261-0734)
WX AWOS-3 at UNU (19 nm NE): 120.825 (920-386-5682)

Nearby radio navigation aids

VOR radial/distance  VOR name  Freq  Var
MSNr058/13.8MADISON VORTAC108.6003E
DLLr117/35.2DELLS VORTAC117.0003E
BAEr282/35.2BADGER VOR/DME116.4002E

 
NDB name  Hdg/Dist  Freq  Var  ID
ROCK RIVER290/15.737101WRYV .-. -.-- ...-
JUNEAU238/18.934401WUNU ..- -. ..-

Airport Services

Airframe service: NONE
Powerplant service: NONE

Runway Information

Runway 18/36

Dimensions: 2600 x 75 ft. / 792 x 23 m
Surface: turf
RUNWAY 18  RUNWAY 36
Traffic pattern: leftleft
Obstructions: treesnone

Airport Ownership and Management from official FAA records

Ownership: Privately-owned
Owner: MATHAIRE FIELD LLC
7693 COUNTY ROAD V V
COLUMBUS, WI 53925
Phone 608-542-0806
Manager: ED MCGAVOCK
7693 COUNTY ROAD V. V.
COLUMBUS, WI 53925
Phone 608-542-0806
EMAIL ADDRESS: EDMCGAVOCK@GMAIL.COM

Airport Operational Statistics

Aircraft based on the field: 25
Single engine airplanes: 18
Ultralights: 7
    

Additional Remarks

FOR CD CTC CHICAGO ARTCC AT 630-906-8921.

Instrument Procedures

There are no published instrument procedures at WI97.

Some nearby airports with instrument procedures:

87Y - Blackhawk Airfield (11 nm SW)
KMSN - Dane County Regional Airport-Truax Field (14 nm SW)
KRYV - Watertown Municipal Airport (16 nm E)
KUNU - Dodge County Airport (19 nm NE)
61C - Fort Atkinson Municipal Airport (21 nm SE)
 
Loc | Ops | Rwys | IFR | FBO | Links
Com | Nav | Svcs | Stats | Notes
Area around WI97 (Mathaire Field Airport)
 
Road maps at: MapQuest Bing Google
 
Aerial photo
No photo
 
Sectional chart

 
Airport distance calculator
Flying to Mathaire Field Airport? Find the distance to fly.

From to WI97

Sunrise and sunset
Times for 07-Oct-2022
 Local
(UTC-5)
 Zulu
(UTC)
Morning civil twilight06:3311:33
Sunrise07:0212:02
Sunset18:2723:27
Evening civil twilight18:5523:55

Current date and time
Zulu (UTC)  07-Oct-2022 19:29:39
Local (UTC-5)  07-Oct-2022 14:29:39
 
METAR
KMSN 
15nm SW 
071853Z 33011KT 10SM BKN041 09/M01 A3042 RMK AO2 SLP309 T00891011
KRYV 
16nm E 
071915Z AUTO 35007G15KT 10SM SCT040 08/M01 A3041 RMK AO2 T00811014
KUNU 
19nm NE 
071915Z AUTO 34008KT 10SM OVC039 08/M01 A3042 RMK AO2 T00761006
KC29 
22nm SW 
071915Z AUTO 34008KT 310V020 10SM SCT044 SCT049 11/00 A3042 RMK AO1 T01091002
TAF
KMSN 
15nm SW 
071729Z 0718/0818 36011G18KT P6SM BKN035 FM080000 34005KT P6SM SCT050 FM080300 00000KT P6SM SKC FM081200 26005KT P6SM SKC FM081600 26010KT P6SM SKC
NOTAMs
Click for the latest NOTAMs
NOTAMs are issued by the DoD/FAA and will open in a separate window not controlled by AirNav.

 

 
 

Would you like to see your business listed on this page?

 If your business provides an interesting product or service to pilots, flight crews, aircraft, or users of the Mathaire Field Airport, you should consider listing it here.  To start the listing process, click on the button below
 
Add a business
 

Other Pages about Mathaire Field Airport

Update a link
 
Copyright © AirNav, LLC. All rights reserved. Privacy Policy  Contact